Wind_Speed
25 26 26 26 25 24 23 22 21 20 19 17 14 12 9 7 7 8 10 12 14 17 19 21 23 25 27 29 30 31 31 31 31 31 32 32 33 33 34 35 35 34 34
25 26 26 26 25 25 24 23 22 21 21 19 16 13 11 8 6 6 7 9 11 14 16 18 20 22 24 26 28 29 30 30 30 30 30 31 32 34 33 33 34 34 33
25 25 26 25 26 25 25 25 24 23 22 20 18 16 13 10 7 5 5 6 8 10 12 15 17 19 22 24 26 27 28 29 30 30 30 30 30 31 31 31 31 31 32
24 25 26 25 25 25 25 25 24 24 23 22 20 18 15 11 9 6 5 4 5 6 8 11 14 16 19 21 23 25 26 27 28 29 30 30 30 31 31 31 31 31 31
23 24 25 25 25 25 25 25 25 24 24 22 21 20 17 14 11 8 7 5 4 5 7 9 12 13 16 18 20 22 24 25 27 28 28 30 31 31 30 30 29 29 30
22 23 24 24 25 25 24 24 25 24 24 23 21 20 18 16 14 11 8 7 6 5 6 8 10 11 13 15 17 19 20 22 24 26 27 28 29 29 29 29 29 30 29
21 22 23 23 24 24 24 24 25 25 24 23 22 20 19 17 16 14 11 9 8 7 7 7 8 9 11 13 15 17 18 19 20 22 24 25 26 28 27 27 28 29 29
21 22 22 23 23 23 23 24 24 24 24 23 22 21 19 18 17 16 14 12 10 8 8 7 6 7 8 10 12 13 14 15 17 19 21 22 23 24 25 26 27 27 28
20 21 21 22 22 22 23 23 23 23 23 23 22 20 19 19 18 17 15 13 12 10 9 7 6 6 6 8 9 11 13 14 15 17 18 20 21 22 23 24 25 25 26
20 21 21 21 22 22 22 22 22 22 22 22 21 20 19 19 18 17 16 15 13 11 10 8 7 6 6 6 8 9 10 11 13 14 15 17 18 20 21 22 23 23 23
20 20 21 21 21 21 21 21 22 21 21 21 20 20 19 18 18 17 17 16 15 13 11 10 8 7 6 7 7 7 9 10 11 12 13 14 16 17 18 20 21 21 21
21 21 21 21 21 21 21 21 21 21 21 20 20 20 19 18 18 17 16 16 15 14 12 11 9 8 7 7 7 7 7 7 9 10 12 12 13 15 16 18 19 19 20
21 21 22 22 22 22 21 21 21 20 20 20 20 19 19 18 18 17 16 15 15 14 13 11 10 10 9 8 7 7 7 7 7 8 9 11 12 14 15 16 18 19 19
23 23 23 23 22 22 22 21 21 21 20 20 19 19 18 18 17 17 16 15 15 14 14 13 11 11 10 9 8 7 7 7 7 7 8 9 10 11 13 14 15 16 17
25 25 24 24 24 23 23 22 22 21 21 20 20 19 18 18 17 17 16 15 15 14 13 13 12 11 11 10 9 8 7 7 7 7 7 7 8 9 10 11 13 14 15
27 27 26 26 25 25 24 24 23 23 22 22 21 21 20 19 18 17 17 16 16 15 14 14 13 12 12 11 11 10 9 9 8 8 8 9 9 9 10 11 12 12 12
29 29 28 28 28 27 27 26 25 24 24 24 24 23 22 21 20 20 19 18 17 16 16 15 14 14 13 12 12 11 11 10 9 9 9 10 10 10 10 10 10 11 11
31 31 31 30 30 30 29 29 28 27 26 26 26 25 25 24 23 22 21 21 20 19 18 17 16 16 15 14 13 13 12 11 11 11 10 10 10 11 11 12 12 12 12
33 33 32 32 32 32 32 31 31 30 30 29 28 28 27 27 27 26 25 24 23 22 21 20 19 18 17 16 16 15 14 13 13 13 13 13 13 13 13 14 14 14 13
34 34 34 34 34 34 34 34 33 33 32 32 31 31 30 29 29 29 28 28 27 26 25 24 23 22 21 20 19 18 17 17 16 16 16 16 16 16 16 15 16 16 16
35 36 36 36 36 36 35 35 35 35 35 34 34 34 34 33 32 32 31 31 31 30 29 28 27 26 25 24 24 23 22 21 21 20 20 19 19 19 18 18 18 18 18
38 38 37 37 37 37 37 37 38 37 37 37 37 37 37 37 36 36 35 35 35 34 33 33 32 31 30 29 28 27 26 26 25 25 24 23 23 22 22 22 21 21 21
39 39 39 39 39 39 40 40 40 40 40 40 40 40 40 40 39 39 39 39 39 38 38 37 36 36 35 34 33 32 31 30 30 29 28 28 27 26 26 26 26 25 24
41 41 41 41 41 41 41 41 41 41 41 42 42 43 43 43 42 42 43 43 42 42 42 41 41 41 40 40 38 37 37 36 35 34 33 33 32 31 30 29 29 28 27
43 42 42 42 42 42 42 42 42 43 43 44 44 45 45 45 46 46 46 46 46 46 46 45 45 45 45 45 44 43 42 41 41 40 39 38 36 35 34 33 32 32 31
44 44 43 43 43 43 44 44 44 45 46 46 47 47 48 48 49 49 49 49 50 50 50 50 50 49 49 49 48 47 47 46 46 45 44 42 41 40 39 38 37 36 35
Wind_Direction
17 17 17 16 16 16 14 13 13 12 9 5 1 354 342 326 300 279 265 255 250 244 241 237 236 236 236 237 239 240 241 242 242 242 241 243 244 243 242 240 241 242 244
17 17 18 18 18 18 19 18 16 15 14 10 6 2 354 343 323 299 278 263 256 247 241 236 236 236 236 237 238 239 240 241 241 242 242 243 244 244 243 242 243 243 245
16 17 18 19 19 19 19 19 19 18 16 14 13 9 5 0 347 326 301 276 262 251 245 240 239 239 238 237 238 239 240 241 242 243 243 244 244 244 243 243 244 245 246
15 16 17 17 18 19 18 18 19 19 18 17 18 18 15 12 6 356 340 312 282 263 252 246 244 243 240 238 238 239 241 242 243 244 245 245 244 245 245 245 245 244 245
13 14 16 16 17 17 18 18 17 18 18 18 19 20 20 19 17 9 358 346 324 292 270 259 251 249 244 240 240 240 243 246 246 247 246 245 245 245 246 245 243 243 244
9 10 12 13 14 15 15 15 15 16 17 18 18 20 22 22 19 14 7 358 340 316 295 277 260 254 248 245 244 243 245 248 249 249 248 246 244 245 246 245 245 245 244
4 6 7 9 10 11 13 13 14 15 16 17 17 19 20 21 19 14 8 2 352 340 323 302 277 261 253 249 248 248 248 251 251 250 250 249 246 245 247 247 247 247 246
360 1 2 4 5 7 8 9 10 12 13 14 15 16 17 17 17 16 11 6 1 351 339 327 303 278 265 255 251 251 250 250 251 249 248 247 245 246 245 246 246 245 245
354 355 357 358 360 1 3 4 6 8 9 10 11 12 13 13 13 14 12 9 4 358 349 339 324 301 284 271 260 255 253 250 252 251 249 247 244 243 243 245 247 246 245
346 349 350 352 354 356 358 0 1 3 4 6 8 8 8 9 10 11 12 11 7 3 359 351 339 320 299 289 275 268 263 258 255 253 250 246 243 242 242 243 245 243 242
340 342 345 346 348 351 353 355 357 358 359 0 2 3 4 5 5 6 6 7 7 4 358 352 347 338 321 306 291 277 267 264 259 254 249 245 242 239 239 242 242 240 239
332 334 336 339 341 342 345 347 349 352 354 355 356 357 358 359 0 1 2 1 1 2 0 356 350 342 330 318 304 289 279 273 262 256 250 244 241 239 239 240 239 240 241
325 327 329 331 333 335 336 339 341 344 346 348 350 351 352 353 353 354 356 358 359 358 357 356 353 349 342 331 319 303 293 286 269 257 250 247 243 242 238 235 236 240 241
319 320 322 323 325 327 329 331 332 334 337 339 341 343 345 347 348 347 348 349 351 352 351 349 346 345 342 337 331 321 304 291 274 266 262 253 247 247 243 240 239 241 245
314 315 316 317 319 320 322 323 324 326 327 329 331 333 334 336 338 340 342 340 339 339 341 341 338 337 335 332 328 322 314 303 289 277 269 263 253 250 251 250 247 245 245
309 310 311 312 313 314 315 316 317 318 320 321 321 322 323 324 325 327 328 330 330 329 328 327 327 326 324 323 322 318 311 303 294 284 275 266 263 260 257 251 249 246 244
305 305 305 306 307 307 307 308 309 310 311 313 313 313 314 314 315 315 316 316 317 319 318 317 315 314 313 312 310 308 305 301 293 286 279 274 269 263 258 253 250 251 251
301 302 302 302 302 303 303 303 303 303 303 304 304 305 305 305 305 305 305 305 305 305 306 306 306 306 304 303 302 300 297 292 287 282 279 276 270 263 259 258 257 255 253
298 299 299 299 299 299 300 300 299 299 299 298 298 297 298 298 298 297 297 296 295 295 295 294 294 295 294 294 293 292 290 286 281 277 273 271 269 266 263 260 257 254 252
296 297 297 297 297 297 297 297 297 296 295 295 294 293 293 292 292 291 291 290 289 288 288 287 285 285 285 284 283 283 281 279 278 275 272 269 267 265 262 259 257 254 253
295 295 296 296 297 297 296 296 296 295 294 293 292 291 291 290 289 287 286 284 283 283 282 281 280 279 278 278 277 276 275 274 273 272 270 266 264 262 261 259 258 256 255
294 294 294 295 295 295 294 294 294 293 293 292 291 290 289 288 287 285 283 282 281 280 278 277 276 274 274 273 272 271 270 269 268 267 266 264 262 260 259 259 258 256 256
294 294 294 294 294 294 293 293 292 292 291 291 290 289 288 286 285 283 281 280 279 278 277 275 274 272 270 269 269 268 267 266 265 264 263 262 261 260 259 258 257 256 256
293 294 294 294 294 294 293 293 292 292 291 290 290 289 287 286 284 282 280 278 277 276 274 273 272 271 269 267 266 265 264 264 263 263 262 260 259 259 259 257 256 256 256
293 293 293 294 294 294 293 293 293 292 292 291 290 289 287 285 284 282 279 277 276 274 273 272 271 270 268 266 265 263 262 261 261 260 260 259 258 257 257 256 255 255 255
292 293 293 293 294 294 294 294 293 293 292 291 290 289 287 286 284 283 281 278 276 273 272 271 269 268 267 265 264 262 261 260 259 258 257 257 256 256 255 254 254 254 254
Height
5804 5799 5794 5788 5783 5778 5773 5769 5764 5760 5756 5753 5750 5747 5746 5744 5744 5744 5745 5746 5748 5750 5752 5755 5758 5762 5766 5770 5774 5778 5782 5786 5790 5793 5796 5799 5803 5806 5809 5812 5816 5819 5822
5806 5801 5796 5790 5785 5780 5775 5770 5766 5762 5757 5754 5750 5747 5745 5744 5743 5742 5743 5743 5745 5746 5748 5751 5754 5757 5760 5764 5767 5771 5775 5778 5782 5785 5788 5792 5795 5798 5801 5804 5808 5811 5814
5808 5803 5798 5793 5788 5782 5778 5773 5768 5764 5759 5755 5751 5748 5745 5743 5742 5742 5741 5742 5743 5744 5745 5747 5749 5752 5755 5758 5761 5765 5768 5771 5775 5778 5781 5784 5787 5790 5793 5797 5800 5803 5806
5810 5805 5800 5795 5790 5785 5780 5775 5771 5766 5761 5757 5753 5749 5746 5744 5743 5742 5741 5741 5741 5742 5743 5744 5746 5748 5750 5753 5755 5758 5762 5765 5767 5770 5773 5776 5779 5782 5785 5789 5792 5795 5798
5812 5807 5802 5797 5792 5787 5783 5778 5773 5769 5764 5760 5756 5752 5748 5746 5744 5742 5741 5741 5740 5740 5741 5742 5743 5744 5745 5747 5750 5753 5755 5758 5760 5763 5765 5768 5771 5774 5777 5780 5783 5786 5789
5813 5809 5804 5799 5795 5790 5785 5780 5776 5771 5766 5762 5758 5754 5751 5748 5746 5743 5742 5741 5740 5740 5739 5739 5739 5740 5741 5743 5745 5747 5749 5751 5754 5755 5758 5760 5763 5766 5769 5772 5775 5779 5782
5814 5810 5805 5801 5796 5792 5787 5783 5778 5773 5769 5765 5761 5757 5753 5750 5748 5745 5743 5741 5740 5739 5738 5737 5737 5737 5738 5739 5740 5742 5743 5745 5747 5749 5751 5753 5756 5759 5762 5765 5768 5771 5774
5814 5810 5806 5802 5797 5793 5789 5784 5780 5776 5771 5767 5763 5759 5756 5753 5750 5747 5744 5742 5740 5738 5737 5736 5735 5735 5735 5736 5736 5738 5739 5740 5742 5743 5745 5747 5749 5751 5755 5758 5760 5763 5766
5814 5810 5806 5802 5798 5794 5790 5786 5781 5777 5773 5769 5765 5761 5758 5755 5751 5749 5746 5743 5741 5739 5737 5735 5734 5734 5733 5734 5734 5735 5735 5736 5737 5738 5739 5741 5743 5745 5748 5751 5754 5757 5759
5813 5810 5806 5802 5798 5794 5790 5786 5782 5778 5774 5770 5767 5763 5760 5756 5753 5750 5747 5744 5742 5739 5737 5735 5734 5733 5733 5732 5732 5732 5732 5733 5733 5734 5735 5737 5738 5740 5742 5745 5748 5750 5753
5812 5808 5805 5801 5798 5794 5790 5786 5783 5779 5775 5771 5768 5764 5761 5758 5754 5751 5748 5745 5743 5740 5738 5736 5734 5733 5732 5731 5731 5730 5730 5730 5730 5731 5731 5733 5734 5736 5738 5740 5743 5745 5747
5810 5806 5803 5800 5796 5793 5789 5786 5782 5779 5775 5772 5768 5765 5762 5758 5755 5752 5749 5746 5744 5741 5739 5737 5735 5733 5731 5730 5729 5729 5728 5728 5728 5728 5729 5729 5731 5732 5734 5736 5738 5740 5742
5807 5804 5801 5798 5794 5791 5788 5785 5781 5778 5775 5772 5768 5765 5762 5759 5756 5753 5750 5747 5745 5742 5740 5737 5735 5733 5732 5730 5729 5728 5727 5726 5726 5726 5726 5727 5728 5729 5730 5731 5733 5735 5737
5803 5801 5798 5795 5792 5789 5786 5782 5779 5776 5773 5770 5767 5764 5761 5758 5755 5752 5750 5747 5745 5742 5740 5738 5736 5734 5732 5730 5728 5727 5726 5725 5725 5725 5725 5725 5725 5726 5727 5728 5730 5731 5733
5799 5796 5794 5791 5788 5785 5782 5779 5776 5774 5771 5768 5765 5763 5760 5757 5754 5752 5749 5747 5744 5742 5740 5737 5735 5733 5732 5730 5728 5727 5725 5724 5723 5723 5723 5723 5723 5724 5724 5725 5726 5727 5729
5794 5791 5788 5786 5783 5781 5778 5775 5772 5770 5767 5764 5762 5759 5757 5755 5752 5750 5747 5745 5743 5741 5739 5736 5734 5732 5730 5729 5727 5725 5724 5723 5722 5721 5721 5721 5721 5722 5722 5722 5723 5724 5725
5787 5785 5782 5780 5777 5775 5772 5770 5768 5766 5763 5760 5757 5755 5753 5751 5749 5747 5744 5742 5740 5738 5736 5734 5732 5730 5728 5727 5725 5724 5722 5721 5720 5720 5719 5719 5719 5719 5719 5720 5720 5721 5722
5780 5778 5775 5773 5770 5768 5765 5763 5761 5759 5758 5755 5753 5750 5747 5745 5744 5742 5740 5738 5736 5734 5733 5731 5729 5727 5726 5724 5723 5721 5720 5719 5718 5718 5717 5717 5716 5717 5717 5717 5717 5718 5718
5772 5770 5767 5765 5762 5760 5758 5755 5753 5751 5750 5748 5746 5744 5741 5739 5737 5735 5734 5732 5731 5729 5727 5726 5725 5723 5722 5720 5719 5718 5717 5716 5715 5715 5714 5714 5714 5713 5713 5713 5714 5714 5715
5764 5761 5759 5756 5754 5752 5749 5747 5745 5742 5741 5739 5737 5735 5733 5732 5730 5728 5726 5724 5723 5722 5721 5720 5719 5718 5716 5715 5714 5713 5712 5712 5711 5710 5710 5710 5709 5709 5709 5709 5710 5710 5711
5754 5752 5749 5747 5744 5742 5740 5737 5735 5733 5731 5729 5727 5725 5723 5722 5721 5719 5717 5716 5715 5713 5712 5712 5711 5710 5709 5708 5708 5707 5706 5706 5705 5705 5704 5704 5704 5704 5704 5704 5705 5705 5706
5744 5742 5739 5737 5734 5732 5729 5727 5724 5722 5720 5718 5716 5714 5712 5711 5709 5708 5707 5705 5704 5703 5703 5702 5701 5701 5700 5700 5699 5699 5698 5698 5698 5697 5697 5697 5697 5697 5698 5698 5699 5699 5700
5733 5730 5728 5725 5723 5720 5718 5715 5713 5711 5708 5706 5704 5702 5700 5698 5697 5695 5694 5693 5692 5691 5691 5690 5690 5689 5689 5689 5689 5688 5688 5688 5688 5688 5688 5689 5689 5689 5690 5690 5691 5691 5692
5721 5719 5716 5713 5711 5708 5705 5703 5700 5698 5695 5693 5691 5689 5686 5684 5683 5681 5680 5679 5678 5677 5677 5676 5676 5676 5676 5676 5676 5676 5676 5676 5677 5677 5678 5678 5679 5680 5680 5681 5682 5683 5684
5709 5706 5703 5700 5698 5695 5692 5690 5687 5684 5682 5679 5676 5674 5672 5669 5667 5666 5664 5663 5662 5662 5661 5661 5661 5661 5661 5661 5661 5662 5662 5662 5663 5664 5665 5666 5667 5668 5669 5670 5671 5672 5673
5695 5693 5690 5687 5684 5681 5679 5676 5673 5670 5667 5664 5661 5658 5656 5653 5651 5649 5647 5646 5645 5644 5644 5644 5644 5643 5643 5644 5644 5645 5646 5647 5647 5648 5650 5651 5653 5655 5656 5657 5659 5660 5662